| time (UTC) | temp F | wind direction | speed MPH | gust MPH | rain 1hr in | rain 24hr in | rain mn in | humidity % | barometer mb |
| 20260502224141 | 68 | 70 | 2.0 | 3.0 | 0.00 | 0.01 | 0.01 | 40 | 1016.1 |
| 20260502223639 | 68 | 21 | 2.0 | 5.0 | 0.00 | 0.01 | 0.01 | 40 | 1015.9 |
| 20260502223137 | 68 | 19 | 0.0 | 6.0 | 0.00 | 0.01 | 0.01 | 40 | 1016.1 |
| 20260502222634 | 68 | 78 | 0.0 | 3.0 | 0.00 | 0.01 | 0.01 | 39 | 1016.0 |
| 20260502222125 | 68 | 13 | 0.0 | 3.0 | 0.00 | 0.01 | 0.01 | 38 | 1015.9 |
| 20260502221620 | 68 | 53 | 2.0 | 5.0 | 0.00 | 0.01 | 0.01 | 39 | 1016.0 |
| 20260502221118 | 69 | 37 | 2.0 | 5.0 | 0.00 | 0.01 | 0.01 | 40 | 1015.9 |
| 20260502220614 | 69 | 75 | 3.0 | 5.0 | 0.00 | 0.01 | 0.01 | 39 | 1015.8 |
| 20260502220110 | 69 | 254 | 1.0 | 8.0 | 0.00 | 0.01 | 0.01 | 37 | 1016.0 |
| 20260502215608 | 69 | 94 | 0.0 | 4.0 | 0.00 | 0.01 | 0.01 | 39 | 1015.9 |
| 20260502215104 | 69 | 51 | 4.0 | 5.0 | 0.00 | 0.01 | 0.01 | 40 | 1015.8 |
| 20260502214601 | 68 | 38 | 4.0 | 6.0 | 0.00 | 0.01 | 0.01 | 39 | 1015.9 |
| 20260502214059 | 68 | 0 | 2.0 | 5.0 | 0.00 | 0.01 | 0.01 | 40 | 1015.8 |
| 20260502213556 | 68 | 46 | 3.0 | 5.0 | 0.00 | 0.01 | 0.01 | 38 | 1015.6 |
| 20260502213053 | 68 | 14 | 0.0 | 4.0 | 0.00 | 0.01 | 0.01 | 40 | 1015.8 |
| 20260502212552 | 68 | 318 | 2.0 | 8.0 | 0.00 | 0.01 | 0.01 | 38 | 1015.8 |
| 20260502212049 | 69 | 315 | 2.0 | 5.0 | 0.00 | 0.01 | 0.01 | 38 | 1015.9 |
| 20260502211545 | 69 | 229 | 1.0 | 4.0 | 0.00 | 0.01 | 0.01 | 39 | 1015.7 |
| 20260502211042 | 69 | 36 | 1.0 | 9.0 | 0.00 | 0.01 | 0.01 | 38 | 1015.5 |
| 20260502210539 | 69 | 26 | 3.0 | 4.0 | 0.00 | 0.01 | 0.01 | 38 | 1016.0 |
| 20260502210036 | 69 | 61 | 3.0 | 5.0 | 0.00 | 0.01 | 0.01 | 38 | 1015.8 |
| 20260502205533 | 69 | 3 | 1.0 | 3.0 | 0.00 | 0.01 | 0.01 | 40 | 1015.8 |
| 20260502205030 | 68 | 70 | 3.0 | 5.0 | 0.00 | 0.01 | 0.01 | 38 | 1015.9 |
| 20260502204527 | 68 | 0 | 1.0 | 5.0 | 0.00 | 0.01 | 0.01 | 38 | 1016.0 |
| 20260502204025 | 68 | 268 | 3.0 | 4.0 | 0.00 | 0.01 | 0.01 | 40 | 1016.0 |
| 20260502203521 | 68 | 8 | 2.0 | 4.0 | 0.00 | 0.01 | 0.01 | 39 | 1016.2 |
| 20260502203018 | 69 | 65 | 3.0 | 5.0 | 0.00 | 0.01 | 0.01 | 37 | 1015.9 |
| 20260502202514 | 69 | 22 | 3.0 | 10.0 | 0.00 | 0.01 | 0.01 | 37 | 1015.8 |
| 20260502202013 | 69 | 53 | 2.0 | 3.0 | 0.00 | 0.01 | 0.01 | 40 | 1016.1 |
| 20260502201508 | 69 | 2 | 2.0 | 6.0 | 0.00 | 0.01 | 0.01 | 39 | 1016.2 |
| 20260502201005 | 68 | 260 | 3.0 | 7.0 | 0.00 | 0.01 | 0.01 | 38 | 1016.2 |
| 20260502200501 | 68 | 88 | 2.0 | 6.0 | 0.00 | 0.01 | 0.01 | 39 | 1016.1 |
| 20260502195959 | 68 | 5 | 4.0 | 6.0 | 0.00 | 0.01 | 0.01 | 38 | 1016.1 |
| 20260502195456 | 69 | 10 | 4.0 | 7.0 | 0.00 | 0.01 | 0.01 | 37 | 1016.1 |
| 20260502194952 | 69 | 356 | 2.0 | 4.0 | 0.00 | 0.01 | 0.01 | 39 | 1016.3 |
| 20260502194449 | 69 | 209 | 1.0 | 6.0 | 0.00 | 0.01 | 0.01 | 38 | 1016.1 |
| 20260502193944 | 69 | 66 | 2.0 | 6.0 | 0.00 | 0.01 | 0.01 | 39 | 1016.1 |
| 20260502193443 | 69 | 358 | 2.0 | 4.0 | 0.00 | 0.01 | 0.01 | 41 | 1016.1 |
| 20260502192938 | 68 | 40 | 2.0 | 8.0 | 0.00 | 0.01 | 0.01 | 41 | 1016.3 |
| 20260502192435 | 68 | 320 | 1.0 | 3.0 | 0.00 | 0.01 | 0.01 | 39 | 1016.1 |
| 20260502191932 | 68 | 358 | 3.0 | 6.0 | 0.00 | 0.01 | 0.01 | 39 | 1016.2 |
| 20260502191429 | 68 | 59 | 3.0 | 18.0 | 0.00 | 0.01 | 0.01 | 40 | 1016.0 |
| 20260502190926 | 68 | 30 | 2.0 | 4.0 | 0.00 | 0.01 | 0.01 | 41 | 1016.1 |
| 20260502190423 | 68 | 331 | 2.0 | 4.0 | 0.00 | 0.01 | 0.01 | 42 | 1016.2 |
| 20260502185919 | 68 | 8 | 3.0 | 4.0 | 0.00 | 0.01 | 0.01 | 41 | 1016.3 |
| 20260502185409 | 68 | 44 | 2.0 | 6.0 | 0.00 | 0.01 | 0.01 | 41 | 1016.3 |
| 20260502184906 | 68 | 29 | 3.0 | 7.0 | 0.00 | 0.01 | 0.01 | 42 | 1016.3 |
| 20260502184402 | 67 | 91 | 1.0 | 4.0 | 0.00 | 0.01 | 0.01 | 43 | 1016.5 |
| 20260502183858 | 67 | 32 | 3.0 | 8.0 | 0.00 | 0.01 | 0.01 | 42 | 1016.5 |
| 20260502183354 | 67 | 40 | 2.0 | 3.0 | 0.00 | 0.01 | 0.01 | 42 | 1016.6 |
| 20260502182850 | 67 | 73 | 1.0 | 5.0 | 0.00 | 0.01 | 0.01 | 43 | 1016.9 |
| 20260502182346 | 67 | 43 | 3.0 | 5.0 | 0.00 | 0.01 | 0.01 | 42 | 1016.6 |
| 20260502181842 | 67 | 57 | 2.0 | 4.0 | 0.00 | 0.01 | 0.01 | 44 | 1016.8 |
| 20260502181341 | 66 | 0 | 1.0 | 4.0 | 0.00 | 0.01 | 0.01 | 44 | 1016.6 |
| 20260502180838 | 66 | 82 | 3.0 | 6.0 | 0.00 | 0.01 | 0.01 | 44 | 1016.8 |
| 20260502180330 | 66 | 322 | 4.0 | 7.0 | 0.00 | 0.01 | 0.01 | 43 | 1016.6 |
| 20260502170249 | 63 | 47 | 2.0 | 4.0 | 0.00 | 0.01 | 0.01 | 52 | 1017.3 |
| 20260502164231 | 62 | 40 | 3.0 | 5.0 | 0.00 | 0.01 | 0.01 | 50 | 1017.1 |
| 20260502163726 | 62 | 99 | 0.0 | 11.0 | 0.00 | 0.01 | 0.01 | 48 | 1017.1 |
| 20260502163223 | 61 | 63 | 2.0 | 7.0 | 0.00 | 0.01 | 0.01 | 54 | 1017.1 |
| 20260502162720 | 61 | 85 | 3.0 | 4.0 | 0.00 | 0.01 | 0.01 | 53 | 1017.4 |
| 20260502162217 | 60 | 76 | 3.0 | 6.0 | 0.00 | 0.01 | 0.01 | 54 | 1017.4 |
| 20260502161714 | 60 | 34 | 3.0 | 3.0 | 0.00 | 0.01 | 0.01 | 58 | 1017.2 |
| 20260502161210 | 60 | 51 | 2.0 | 5.0 | 0.00 | 0.01 | 0.01 | 56 | 1017.3 |
| 20260502160709 | 59 | 30 | 3.0 | 7.0 | 0.00 | 0.01 | 0.01 | 60 | 1017.4 |
| 20260502160208 | 59 | 40 | 4.0 | 5.0 | 0.00 | 0.01 | 0.01 | 62 | 1017.4 |
| 20260502152126 | 59 | 60 | 0.0 | 3.0 | 0.00 | 0.01 | 0.01 | 67 | 1017.0 |
| 20260502151623 | 58 | 32 | 2.0 | 4.0 | 0.00 | 0.01 | 0.01 | 68 | 1016.9 |
| 20260502151121 | 58 | 25 | 0.0 | 4.0 | 0.00 | 0.01 | 0.01 | 67 | 1016.6 |
| 20260502150618 | 58 | 35 | 4.0 | 5.0 | 0.00 | 0.01 | 0.01 | 67 | 1016.8 |
| 20260502150114 | 57 | 84 | 0.0 | 3.0 | 0.00 | 0.01 | 0.01 | 69 | 1016.7 |
| 20260502130503 | 52 | 58 | 1.0 | 3.0 | 0.00 | 0.01 | 0.01 | 78 | 1015.6 |
| 20260502123446 | 52 | 58 | 2.0 | 3.0 | 0.00 | 0.01 | 0.01 | 79 | 1015.3 |
| 20260502122943 | 52 | 53 | 2.0 | 3.0 | 0.00 | 0.01 | 0.01 | 79 | 1015.2 |
| 20260502122438 | 52 | 39 | 0.0 | 3.0 | 0.00 | 0.01 | 0.01 | 79 | 1015.0 |
| 20260502121937 | 52 | 34 | 2.0 | 4.0 | 0.00 | 0.01 | 0.01 | 79 | 1015.1 |
| 20260502121434 | 52 | 56 | 1.0 | 4.0 | 0.00 | 0.01 | 0.01 | 80 | 1015.2 |
| 20260502120931 | 52 | 46 | 2.0 | 3.0 | 0.00 | 0.01 | 0.01 | 80 | 1015.0 |
| 20260502120427 | 52 | 38 | 2.0 | 3.0 | 0.00 | 0.01 | 0.01 | 81 | 1014.9 |
| 20260502115925 | 52 | 61 | 2.0 | 4.0 | 0.00 | 0.01 | 0.01 | 81 | 1014.9 |
| 20260502115422 | 52 | 45 | 2.0 | 3.0 | 0.00 | 0.01 | 0.01 | 82 | 1014.5 |
| 20260502114918 | 52 | 43 | 2.0 | 3.0 | 0.00 | 0.01 | 0.01 | 81 | 1014.6 |
| 20260502114415 | 52 | 26 | 2.0 | 3.0 | 0.00 | 0.01 | 0.01 | 82 | 1014.5 |
| 20260502113912 | 52 | 41 | 2.0 | 3.0 | 0.00 | 0.01 | 0.01 | 81 | 1014.4 |
| 20260502113410 | 52 | 53 | 2.0 | 3.0 | 0.00 | 0.01 | 0.01 | 82 | 1014.1 |
| 20260502112908 | 52 | 62 | 1.0 | 3.0 | 0.00 | 0.01 | 0.01 | 82 | 1014.4 |
| 20260502112405 | 52 | 33 | 1.0 | 2.0 | 0.00 | 0.01 | 0.01 | 82 | 1014.2 |
| 20260502111902 | 52 | 52 | 2.0 | 2.0 | 0.00 | 0.01 | 0.01 | 82 | 1014.2 |
| 20260502111359 | 52 | 70 | 2.0 | 3.0 | 0.00 | 0.01 | 0.01 | 84 | 1014.1 |
| 20260502110857 | 52 | 32 | 1.0 | 2.0 | 0.00 | 0.01 | 0.01 | 85 | 1014.3 |
| 20260502110355 | 52 | 61 | 1.0 | 3.0 | 0.00 | 0.01 | 0.01 | 85 | 1014.4 |
| 20260502105852 | 52 | 45 | 2.0 | 3.0 | 0.00 | 0.01 | 0.01 | 85 | 1014.3 |
| 20260502105349 | 52 | 63 | 1.0 | 2.0 | 0.00 | 0.01 | 0.01 | 85 | 1014.4 |
| 20260502104847 | 52 | 41 | 0.0 | 2.0 | 0.00 | 0.01 | 0.01 | 85 | 1014.5 |
| 20260502104344 | 52 | 72 | 2.0 | 3.0 | 0.00 | 0.01 | 0.01 | 85 | 1014.2 |
| 20260502103840 | 52 | 41 | 2.0 | 3.0 | 0.00 | 0.01 | 0.01 | 86 | 1014.2 |
| 20260502103338 | 52 | 75 | 1.0 | 3.0 | 0.00 | 0.01 | 0.01 | 86 | 1014.1 |
| 20260502102835 | 52 | 119 | 0.0 | 3.0 | 0.00 | 0.01 | 0.01 | 87 | 1014.2 |
| 20260502102331 | 52 | 40 | 2.0 | 3.0 | 0.00 | 0.01 | 0.01 | 87 | 1013.6 |
| 20260502101829 | 52 | 68 | 0.0 | 2.0 | 0.00 | 0.01 | 0.01 | 87 | 1014.2 |
| 20260502101327 | 52 | 149 | 0.0 | 2.0 | 0.00 | 0.01 | 0.01 | 87 | 1014.3 |
| 20260502100826 | 52 | 57 | 2.0 | 2.0 | 0.00 | 0.01 | 0.01 | 87 | 1014.0 |
| 20260502100325 | 52 | 69 | 0.0 | 2.0 | 0.00 | 0.01 | 0.01 | 88 | 1014.2 |
| 20260502091258 | 53 | 32 | 0.0 | 2.0 | 0.00 | 0.01 | 0.01 | 87 | 1014.2 |
| 20260502090755 | 53 | 44 | 1.0 | 2.0 | 0.00 | 0.01 | 0.01 | 86 | 1014.1 |
| 20260502090252 | 53 | 37 | 2.0 | 3.0 | 0.02 | 0.01 | 0.01 | 86 | 1014.1 |
| 20260502071153 | 56 | 32 | 1.0 | 2.0 | 0.00 | 0.00 | 0.00 | 91 | 1014.4 |
| 20260502070651 | 55 | 62 | 0.0 | 2.0 | 0.00 | 0.00 | 0.00 | 91 | 1014.3 |
| 20260502070149 | 56 | 84 | 1.0 | 2.0 | 0.00 | 0.00 | 0.00 | 91 | 1014.4 |
| 20260502065647 | 56 | 63 | 1.0 | 2.0 | 0.00 | 0.00 | 0.00 | 91 | 1014.1 |
| 20260502065144 | 56 | 32 | 0.0 | 2.0 | 0.00 | 0.00 | 0.00 | 90 | 1014.3 |
| 20260502064643 | 56 | 66 | 0.0 | 1.0 | 0.00 | 0.00 | 0.00 | 90 | 1014.8 |
| 20260502064139 | 56 | 55 | 0.0 | 1.0 | 0.00 | 0.00 | 0.00 | 90 | 1015.0 |
| 20260502063637 | 56 | 129 | 0.0 | 1.0 | 0.00 | 0.00 | 0.00 | 90 | 1014.8 |
| 20260502063135 | 56 | 89 | 0.0 | 1.0 | 0.00 | 0.00 | 0.00 | 90 | 1015.0 |
| 20260502062631 | 56 | 89 | 0.0 | 2.0 | 0.00 | 0.00 | 0.00 | 90 | 1015.2 |
| 20260502062129 | 56 | 89 | 0.0 | 1.0 | 0.00 | 0.00 | 0.00 | 90 | 1015.1 |
| 20260502061627 | 56 | 55 | 0.0 | 1.0 | 0.00 | 0.00 | 0.00 | 90 | 1015.0 |
| 20260502061125 | 56 | 50 | 0.0 | 0.0 | 0.02 | 0.00 | 0.00 | 90 | 1014.9 |
| 20260502060624 | 56 | 50 | 0.0 | 1.0 | 0.02 | 0.00 | 0.00 | 90 | 1014.8 |
| 20260502060121 | 57 | 287 | 0.0 | 0.0 | 0.00 | 0.00 | 0.00 | 90 | 1014.9 |
| 20260502055619 | 56 | 147 | 0.0 | 1.0 | 0.00 | 0.00 | 0.00 | 90 | 1015.1 |
| 20260502055117 | 56 | 129 | 0.0 | 0.0 | 0.00 | 0.00 | 0.00 | 90 | 1014.9 |
| 20260502054616 | 56 | 104 | 0.0 | 0.0 | 0.00 | 0.00 | 0.00 | 90 | 1014.8 |
| 20260502054113 | 56 | 104 | 0.0 | 0.0 | 0.00 | 0.00 | 0.00 | 90 | 1014.4 |
| 20260502053610 | 57 | 96 | 1.0 | 2.0 | 0.00 | 0.00 | 0.00 | 90 | 1014.4 |
| 20260502053107 | 57 | 297 | 0.0 | 1.0 | 0.00 | 0.00 | 0.00 | 90 | 1014.6 |
| 20260502052605 | 56 | 117 | 0.0 | 1.0 | 0.00 | 0.00 | 0.00 | 90 | 1014.5 |
| 20260502052103 | 56 | 117 | 0.0 | 1.0 | 0.00 | 0.00 | 0.00 | 90 | 1014.5 |
| 20260502051601 | 57 | 25 | 0.0 | 0.0 | 0.00 | 0.00 | 0.00 | 90 | 1014.6 |
| 20260502051059 | 57 | 25 | 0.0 | 1.0 | 0.00 | 0.00 | 0.00 | 90 | 1014.6 |
| 20260502050554 | 57 | 62 | 0.0 | 0.0 | 0.00 | 0.00 | 0.00 | 90 | 1014.6 |
| 20260502050052 | 57 | 62 | 0.0 | 1.0 | 0.00 | 0.00 | 0.00 | 90 | 1014.3 |
| 20260502045548 | 57 | 89 | 0.0 | 1.0 | 0.02 | 0.04 | 0.04 | 90 | 1014.6 |
| 20260502045045 | 57 | 118 | 0.0 | 1.0 | 0.00 | 0.03 | 0.03 | 90 | 1014.5 |
| 20260502044542 | 57 | 117 | 0.0 | 1.0 | 0.00 | 0.03 | 0.03 | 90 | 1014.3 |
| 20260502044039 | 57 | 89 | 0.0 | 1.0 | 0.00 | 0.03 | 0.03 | 90 | 1014.6 |
| 20260502043536 | 57 | 104 | 0.0 | 1.0 | 0.00 | 0.03 | 0.03 | 90 | 1014.8 |
| 20260502043032 | 57 | 50 | 0.0 | 1.0 | 0.00 | 0.03 | 0.03 | 90 | 1014.4 |
| 20260502042527 | 57 | 58 | 0.0 | 1.0 | 0.00 | 0.03 | 0.03 | 90 | 1014.5 |
| 20260502042025 | 57 | 142 | 0.0 | 1.0 | 0.00 | 0.03 | 0.03 | 90 | 1014.6 |
| 20260502041523 | 57 | 160 | 0.0 | 1.0 | 0.00 | 0.03 | 0.03 | 90 | 1014.3 |
| 20260502041020 | 57 | 147 | 0.0 | 1.0 | 0.00 | 0.03 | 0.03 | 90 | 1014.1 |
| 20260502040516 | 57 | 35 | 0.0 | 1.0 | 0.00 | 0.03 | 0.03 | 90 | 1014.2 |
| 20260502040014 | 57 | 117 | 0.0 | 0.0 | 0.00 | 0.03 | 0.03 | 90 | 1014.5 |
| 20260502035509 | 56 | 209 | 0.0 | 0.0 | 0.00 | 0.03 | 0.03 | 90 | 1014.5 |
| 20260502035007 | 57 | 193 | 0.0 | 1.0 | 0.00 | 0.03 | 0.03 | 90 | 1014.6 |
| 20260502034505 | 57 | 154 | 0.0 | 2.0 | 0.00 | 0.03 | 0.03 | 90 | 1014.2 |
| 20260502034003 | 57 | 50 | 0.0 | 0.0 | 0.00 | 0.03 | 0.03 | 90 | 1014.3 |
| 20260502033501 | 57 | 50 | 0.0 | 0.0 | 0.00 | 0.03 | 0.03 | 90 | 1014.0 |
| 20260502032957 | 57 | 55 | 0.0 | 1.0 | 0.00 | 0.03 | 0.03 | 90 | 1014.1 |
| 20260502032454 | 57 | 77 | 0.0 | 2.0 | 0.00 | 0.03 | 0.03 | 89 | 1014.2 |
| 20260502031950 | 57 | 75 | 0.0 | 1.0 | 0.00 | 0.03 | 0.03 | 89 | 1014.3 |
| 20260502031449 | 57 | 64 | 0.0 | 2.0 | 0.00 | 0.03 | 0.03 | 89 | 1014.3 |
| 20260502030947 | 57 | 87 | 1.0 | 2.0 | 0.00 | 0.03 | 0.03 | 89 | 1014.3 |
| 20260502030445 | 57 | 78 | 0.0 | 1.0 | 0.00 | 0.03 | 0.03 | 89 | 1014.4 |
| 20260502025942 | 57 | 62 | 0.0 | 1.0 | 0.00 | 0.03 | 0.03 | 89 | 1014.8 |
| 20260502025439 | 57 | 89 | 0.0 | 0.0 | 0.00 | 0.03 | 0.03 | 89 | 1014.3 |
| 20260502024937 | 57 | 60 | 0.0 | 1.0 | 0.00 | 0.03 | 0.03 | 89 | 1015.0 |
| 20260502024435 | 57 | 66 | 1.0 | 1.0 | 0.00 | 0.03 | 0.03 | 89 | 1015.0 |
| 20260502023933 | 57 | 62 | 0.0 | 1.0 | 0.00 | 0.03 | 0.03 | 89 | 1015.0 |
| 20260502023430 | 57 | 75 | 0.0 | 0.0 | 0.00 | 0.03 | 0.03 | 89 | 1014.8 |
| 20260502022928 | 57 | 25 | 0.0 | 1.0 | 0.00 | 0.03 | 0.03 | 88 | 1014.8 |
| 20260502022424 | 57 | 25 | 0.0 | 1.0 | 0.00 | 0.03 | 0.03 | 88 | 1014.8 |
| 20260502021921 | 57 | 117 | 0.0 | 0.0 | 0.00 | 0.03 | 0.03 | 88 | 1014.6 |
| 20260502021418 | 57 | 114 | 0.0 | 2.0 | 0.00 | 0.03 | 0.03 | 88 | 1014.8 |
| 20260502020915 | 58 | 95 | 1.0 | 2.0 | 0.00 | 0.03 | 0.03 | 86 | 1014.8 |
| 20260502020413 | 58 | 107 | 2.0 | 2.0 | 0.00 | 0.03 | 0.03 | 86 | 1015.2 |
| 20260502015909 | 58 | 141 | 1.0 | 2.0 | 0.02 | 0.03 | 0.03 | 86 | 1015.3 |
| 20260502015407 | 58 | 117 | 0.0 | 1.0 | 0.02 | 0.03 | 0.03 | 86 | 1015.3 |
| 20260502014904 | 58 | 103 | 0.0 | 1.0 | 0.00 | 0.03 | 0.03 | 86 | 1015.2 |
| 20260502014401 | 58 | 117 | 0.0 | 0.0 | 0.00 | 0.03 | 0.03 | 85 | 1015.2 |
| 20260502013857 | 58 | 104 | 0.0 | 0.0 | 0.02 | 0.03 | 0.03 | 85 | 1015.3 |
| 20260502013352 | 58 | 117 | 0.0 | 1.0 | 0.02 | 0.03 | 0.03 | 85 | 1015.1 |
| 20260502012849 | 58 | 89 | 0.0 | 1.0 | 0.02 | 0.02 | 0.02 | 85 | 1015.1 |
| 20260502012347 | 58 | 89 | 0.0 | 2.0 | 0.02 | 0.02 | 0.02 | 84 | 1015.0 |
| 20260502011844 | 58 | 95 | 2.0 | 2.0 | 0.02 | 0.02 | 0.02 | 84 | 1015.1 |
| 20260502011340 | 58 | 220 | 0.0 | 2.0 | 0.05 | 0.02 | 0.02 | 83 | 1015.0 |
| 20260502010838 | 59 | 110 | 0.0 | 2.0 | 0.05 | 0.02 | 0.02 | 83 | 1015.1 |
| 20260502010334 | 59 | 122 | 0.0 | 1.0 | 0.02 | 0.01 | 0.01 | 83 | 1015.1 |
| 20260502005831 | 59 | 62 | 0.0 | 1.0 | 0.02 | 0.01 | 0.01 | 82 | 1015.1 |
| 20260502005329 | 59 | 147 | 0.0 | 1.0 | 0.00 | 0.00 | 0.00 | 82 | 1014.6 |
| 20260502004826 | 59 | 119 | 1.0 | 2.0 | 0.00 | 0.00 | 0.00 | 82 | 1014.5 |
| 20260502004322 | 59 | 125 | 1.0 | 2.0 | 0.00 | 0.00 | 0.00 | 82 | 1014.3 |
| 20260502003820 | 59 | 166 | 0.0 | 1.0 | 0.02 | 0.00 | 0.00 | 81 | 1014.1 |
| 20260502003317 | 59 | 50 | 0.0 | 1.0 | 0.02 | 0.00 | 0.00 | 81 | 1014.1 |
| 20260502002813 | 59 | 62 | 0.0 | 0.0 | 0.00 | 0.00 | 0.00 | 81 | 1014.1 |
| 20260502002311 | 59 | 104 | 0.0 | 1.0 | 0.00 | 0.00 | 0.00 | 81 | 1014.0 |
| 20260502001808 | 60 | 62 | 0.0 | 1.0 | 0.00 | 0.00 | 0.00 | 81 | 1014.2 |
| 20260502001306 | 60 | 129 | 0.0 | 1.0 | 0.00 | 0.00 | 0.00 | 81 | 1014.4 |
| 20260502000803 | 60 | 76 | 0.0 | 1.0 | 0.00 | 0.00 | 0.00 | 80 | 1014.1 |
| 20260502000302 | 60 | 49 | 0.0 | 2.0 | 0.00 | 0.00 | 0.00 | 80 | 1014.1 |
| 20260501235756 | 60 | 110 | 0.0 | 0.0 | 0.00 | 0.00 | 0.00 | 80 | 1014.0 |
| 20260501235252 | 60 | 81 | 0.0 | 1.0 | 0.00 | 0.00 | 0.00 | 80 | 1014.0 |
| 20260501234748 | 60 | 50 | 0.0 | 0.0 | 0.00 | 0.00 | 0.00 | 80 | 1014.0 |
| 20260501234245 | 60 | 50 | 0.0 | 1.0 | 0.00 | 0.00 | 0.00 | 80 | 1013.8 |
| 20260501233743 | 60 | 119 | 0.0 | 1.0 | 0.00 | 0.00 | 0.00 | 80 | 1014.0 |
| 20260501233241 | 61 | 104 | 0.0 | 1.0 | 0.00 | 0.00 | 0.00 | 80 | 1013.9 |
| 20260501232736 | 61 | 147 | 0.0 | 1.0 | 0.00 | 0.00 | 0.00 | 80 | 1013.9 |
| 20260501232233 | 61 | 57 | 0.0 | 1.0 | 0.00 | 0.00 | 0.00 | 80 | 1013.7 |
| 20260501231731 | 61 | 75 | 0.0 | 1.0 | 0.00 | 0.00 | 0.00 | 80 | 1013.8 |
| 20260501231229 | 61 | 44 | 0.0 | 1.0 | 0.00 | 0.00 | 0.00 | 79 | 1013.7 |
| 20260501230727 | 61 | 62 | 0.0 | 1.0 | 0.00 | 0.00 | 0.00 | 79 | 1013.8 |
| 20260501230226 | 61 | 66 | 0.0 | 1.0 | 0.00 | 0.00 | 0.00 | 78 | 1013.8 |
| 20260501225723 | 61 | 37 | 0.0 | 1.0 | 0.00 | 0.00 | 0.00 | 78 | 1013.7 |
| 20260501225220 | 62 | 37 | 0.0 | 2.0 | 0.00 | 0.00 | 0.00 | 78 | 1013.7 |
| 20260501224716 | 62 | 49 | 0.0 | 1.0 | 0.00 | 0.00 | 0.00 | 77 | 1013.8 |